(70908) = 1999 VD186 = 2001 CJ2 = 1992 CT8

Discovered at Socorro on 1999-11-15 by LINEAR.

Orbit

Orbit type: Main Belt

Note: WebGL enabled browser required.

epoch2024-03-31.0
epoch JD2460400.5
perihelion date2023-10-28.54488
perihelion JD2460246.04488
argument of perihelion (°)120.32288
ascending node (°)78.28067
inclination (°)3.34658
eccentricity0.0672369
perihelion distance (AU)2.5155863
Tisserand w.r.t. Jupiter3.4
ΔV w.r.t. Earth (km/sec)10.0
semimajor axis (AU)2.6969188
mean anomaly (°)34.37196
mean daily motion (°/day)0.22253690
aphelion distance (AU)2.878
period (years)4.43
P-vector [x]-0.94630737
P-vector [y]-0.31301128
P-vector [z]-0.08078556
Q-vector [x]0.31817488
Q-vector [y]-0.85765861
Q-vector [z]-0.40396343
absolute magnitude14.98
phase slope0.15
uncertainty0
referenceMPEC 2024-C181
observations used1503
oppositions19
arc length (days)11386
first opposition used1992
last opposition used2023
residual rms (arc-secs)0.66
perturbers coarse indicatorM-v
perturbers precise indicator003Ek
first observation date used1992-02-10.0
last observation date used2023-04-14.0
computer nameMPCLINUX
JD of orbit computation2456819.562138
perihelion JD uncertainty (days)1.4405E-04
argument of perihelion uncertainty (°)7.6954E-05
ascending node uncertainty (°)7.0386E-05
inclination uncertainty (°)3.8960E-06
eccentricity uncertainty 4.6262E-08
perihelion distance uncertainty (AU)1.2759E-07
Minimum Orbit Intersection Distances (in AU)
for orbit epoch: 2460400.5, reference: E2024-CI1
Mercury2.08023
Venus1.79414
Earth1.51503
Mars0.87422
Jupiter2.07598
Saturn6.26518
Uranus15.8909
Neptune26.9492

Observations

1558 total observations over interval: 1992 02 10.54096 – 2023 04 14.178231
These data are available for download (format description).

Date (UT) J2000 RA J2000 Dec Magn Location Ref
1992 02 10.54096 08 55 48.27 +21 56 29.2 18   372 – Geisei MPC 42005
1992 02 10.55139 08 55 47.60 +21 56 29.1   372 – Geisei MPC 42005
1999 10 10.28210 03 24 43.13 +15 38 13.5 19.4   704 – Lincoln Laboratory ETS, New Mexico MPS 15582
1999 10 10.29729 03 24 42.67 +15 38 12.5 19.7   704 – Lincoln Laboratory ETS, New Mexico MPS 15582
1999 10 10.31282 03 24 42.21 +15 38 12.1 19.8   704 – Lincoln Laboratory ETS, New Mexico MPS 15582
1999 10 10.32809 03 24 41.75 +15 38 10.1 19.8   704 – Lincoln Laboratory ETS, New Mexico MPS 15582
1999 11 01.25601 03 08 45.39 +14 44 11.2 18.6 R 703 – Catalina Sky Survey MPS 15582
1999 11 01.26808 03 08 44.76 +14 44 09.7 18.2 R 703 – Catalina Sky Survey MPS 15582
1999 11 01.28011 03 08 44.14 +14 44 08.0 18.3 R 703 – Catalina Sky Survey MPS 15582
1999 11 01.29212 03 08 43.43 +14 44 05.8 18.2 R 703 – Catalina Sky Survey MPS 15582
1999 11 04.32341 03 05 58.95 +14 35 04.2 18.9   704 – Lincoln Laboratory ETS, New Mexico MPS 15582
1999 11 04.33952 03 05 57.99 +14 35 02.8 19.4   704 – Lincoln Laboratory ETS, New Mexico MPS 15582
1999 11 04.35569 03 05 57.13 +14 34 58.3 19.5   704 – Lincoln Laboratory ETS, New Mexico MPS 15582
1999 11 04.37179 03 05 56.20 +14 34 56.4 19.1   704 – Lincoln Laboratory ETS, New Mexico MPS 15582
1999 11 04.38785 03 05 55.28 +14 34 53.8 18.9   704 – Lincoln Laboratory ETS, New Mexico MPS 15582
1999 11 15.29204 02 55 49.40 +14 02 27.4 19.0   704 – Lincoln Laboratory ETS, New Mexico MPS 14038
1999 11 15.30636 02 55 48.55 +14 02 25.0 19.2   704 – Lincoln Laboratory ETS, New Mexico MPS 14038
1999 11 15.32101 02 55 47.73 +14 02 21.8 19.1   704 – Lincoln Laboratory ETS, New Mexico MPS 14038
1999 11 15.33548 02 55 46.94 +14 02 18.8 19.2   704 – Lincoln Laboratory ETS, New Mexico MPS 14038
1999 11 15.34979 02 55 46.08 +14 02 15.9 19.1   704 – Lincoln Laboratory ETS, New Mexico MPS 14038
1999 11 16.19944 02 54 59.86 +13 59 51.1 19.1 V 691 – Steward Observatory, Kitt Peak-Spacewatch MPS 15582
1999 11 16.22104 02 54 58.66 +13 59 47.4 19.1 V 691 – Steward Observatory, Kitt Peak-Spacewatch MPS 15582
1999 11 16.24431 02 54 57.34 +13 59 43.4 19.0 V 691 – Steward Observatory, Kitt Peak-Spacewatch MPS 15582
1999 11 17.20707 02 54 04.90 +13 57 00.7 18.8   704 – Lincoln Laboratory ETS, New Mexico MPS 14038
1999 11 17.22266 02 54 04.12 +13 56 57.5 19.3   704 – Lincoln Laboratory ETS, New Mexico MPS 14038
1999 11 17.23822 02 54 03.30 +13 56 55.3 19.5   704 – Lincoln Laboratory ETS, New Mexico MPS 14038
1999 11 17.25381 02 54 02.32 +13 56 52.5 19.4   704 – Lincoln Laboratory ETS, New Mexico MPS 14038
1999 11 17.26942 02 54 01.55 +13 56 49.9 19.4   704 – Lincoln Laboratory ETS, New Mexico MPS 14038
1999 12 04.21205 02 40 33.29 +13 18 22.0 18.9 R 703 – Catalina Sky Survey MPS 15582
1999 12 04.22418 02 40 32.65 +13 18 21.2 18.4 R 703 – Catalina Sky Survey MPS 15582
1999 12 04.23630 02 40 32.38 +13 18 20.8 18.5 R 703 – Catalina Sky Survey MPS 15582
1999 12 04.24842 02 40 31.82 +13 18 17.2 18.0 R 703 – Catalina Sky Survey MPS 15582
2001 01 19.40474 10 29 08.74 +14 20 15.7 19.1   704 – Lincoln Laboratory ETS, New Mexico MPS 25766
2001 01 19.42031 10 29 08.28 +14 20 20.2 19.7   704 – Lincoln Laboratory ETS, New Mexico MPS 25766
2001 01 19.47034 10 29 06.95 +14 20 33.5 19.7   704 – Lincoln Laboratory ETS, New Mexico MPS 25766
2001 02 01.33134 10 21 40.56 +15 25 07.0 18.3   704 – Lincoln Laboratory ETS, New Mexico MPS 25766
2001 02 01.34631 10 21 39.87 +15 25 12.4 18.4   704 – Lincoln Laboratory ETS, New Mexico MPS 25766
2001 02 01.36117 10 21 39.17 +15 25 17.6 17.7   704 – Lincoln Laboratory ETS, New Mexico MPS 25766
2001 02 01.37603 10 21 38.53 +15 25 22.7 18.0   704 – Lincoln Laboratory ETS, New Mexico MPS 25766
2001 02 01.39089 10 21 37.83 +15 25 27.5 18.0   704 – Lincoln Laboratory ETS, New Mexico MPS 25766
2001 02 02.31606 10 20 57.58 +15 30 34.8 18.5   704 – Lincoln Laboratory ETS, New Mexico MPS 25766
2001 02 02.34586 10 20 56.21 +15 30 46.0 18.6   704 – Lincoln Laboratory ETS, New Mexico MPS 25766
2001 02 02.36077 10 20 55.50 +15 30 50.9 18.4   704 – Lincoln Laboratory ETS, New Mexico MPS 25766
2001 02 02.37568 10 20 54.82 +15 30 56.3 18.8   704 – Lincoln Laboratory ETS, New Mexico MPS 25766
2001 02 14.99031 10 10 28.86 +16 42 20.0 18.5   106 – Crni Vrh MPS 26573
2001 02 15.00840 10 10 27.84 +16 42 26.5 18.2   106 – Crni Vrh MPS 26573
2001 02 15.02648 10 10 26.85 +16 42 32.9 18.2   106 – Crni Vrh MPS 26573
2001 02 17.30359 10 08 24.62 +16 55 05.2 18.0   704 – Lincoln Laboratory ETS, New Mexico MPS 26573
2001 02 17.31773 10 08 23.84 +16 55 09.2 18.5   704 – Lincoln Laboratory ETS, New Mexico MPS 26573
2001 02 17.33186 10 08 23.06 +16 55 14.0 18.5   704 – Lincoln Laboratory ETS, New Mexico MPS 26573
2001 02 17.34598 10 08 22.27 +16 55 18.4 18.4   704 – Lincoln Laboratory ETS, New Mexico MPS 26573
2001 02 17.36009 10 08 21.50 +16 55 23.4 18.7   704 – Lincoln Laboratory ETS, New Mexico MPS 26573
2001 02 20.35702 10 05 39.29 +17 11 20.0 18.1   704 – Lincoln Laboratory ETS, New Mexico MPS 26573
2001 02 20.37123 10 05 38.50 +17 11 25.0 18.4   704 – Lincoln Laboratory ETS, New Mexico MPS 26573
2001 02 20.38563 10 05 37.70 +17 11 29.6 18.3   704 – Lincoln Laboratory ETS, New Mexico MPS 26573
2001 02 20.39984 10 05 36.93 +17 11 33.2 18.4   704 – Lincoln Laboratory ETS, New Mexico MPS 26573
2001 02 20.41406 10 05 36.12 +17 11 38.4 18.9   704 – Lincoln Laboratory ETS, New Mexico MPS 26573
2001 03 03.24115 09 56 10.05 +18 01 45.2 18.3   704 – Lincoln Laboratory ETS, New Mexico MPS 27677
2001 03 03.25410 09 56 09.40 +18 01 47.4 18.9   704 – Lincoln Laboratory ETS, New Mexico MPS 27677
2001 03 03.26703 09 56 08.79 +18 01 49.8 18.7   704 – Lincoln Laboratory ETS, New Mexico MPS 27677
2001 03 03.27997 09 56 08.15 +18 01 54.6 18.2   704 – Lincoln Laboratory ETS, New Mexico MPS 27677
2001 03 03.29344 09 56 07.55 +18 01 57.6 18.7   704 – Lincoln Laboratory ETS, New Mexico MPS 27677
2001 03 14.16410 09 48 14.90 +18 35 50.3 18.8 R 699 – Lowell Observatory-LONEOS MPS 27677
2001 03 14.19690 09 48 13.72 +18 35 55.2   699 – Lowell Observatory-LONEOS MPS 27677
2001 03 14.22991 09 48 12.41 +18 35 59.9   699 – Lowell Observatory-LONEOS MPS 27677
2001 03 14.26269 09 48 11.06 +18 36 04.3   699 – Lowell Observatory-LONEOS MPS 27677
2001 03 16.42635 09 46 54.56 +18 40 32.8 20.2   608 – Haleakala-AMOS MPS 27677
2001 03 16.43701 09 46 54.22 +18 40 33.7 20.4   608 – Haleakala-AMOS MPS 27677
2001 03 16.44762 09 46 53.79 +18 40 35.3 19.8   608 – Haleakala-AMOS MPS 27677
2001 03 19.18817 09 45 26.88 +18 45 06.3 18.7   704 – Lincoln Laboratory ETS, New Mexico MPS 27677
2001 03 19.20151 09 45 26.52 +18 45 07.4 18.9   704 – Lincoln Laboratory ETS, New Mexico MPS 27677
2001 03 19.22873 09 45 25.69 +18 45 09.7 19.2   704 – Lincoln Laboratory ETS, New Mexico MPS 27677
2001 03 19.24225 09 45 25.13 +18 45 11.9 19.5   704 – Lincoln Laboratory ETS, New Mexico MPS 27677
2003 09 18.01950 00 51 37.59 +00 16 55.5 18.6 R 599 – Campo Imperatore-CINEOS MPS 84464
2003 09 18.02978 00 51 37.09 +00 16 51.4 18.4 R 599 – Campo Imperatore-CINEOS MPS 84464
2003 09 18.03987 00 51 36.68 +00 16 48.0 18.3 R 599 – Campo Imperatore-CINEOS MPS 84464
2003 09 18.05022 00 51 36.21 +00 16 44.8 18.6 R 599 – Campo Imperatore-CINEOS MPS 84464
2003 09 20.01447 00 50 08.11 +00 06 58.6 18.9 R 941 – Observatorio Pla D'Arguines MPS 85054
2003 09 20.01561 00 50 08.04 +00 06 58.2 18.9 R 941 – Observatorio Pla D'Arguines MPS 85054
2003 09 20.01674 00 50 07.99 +00 06 57.8 18.9 R 941 – Observatorio Pla D'Arguines MPS 85054
2003 09 21.26485 00 49 10.57 +00 00 42.2 18.8 R 699 – Lowell Observatory-LONEOS MPS 85054
2003 09 21.27147 00 49 10.20 +00 00 39.9   699 – Lowell Observatory-LONEOS MPS 85054
2003 09 21.27804 00 49 09.92 +00 00 38.1   699 – Lowell Observatory-LONEOS MPS 85054
2003 09 21.28472 00 49 09.60 +00 00 35.5   699 – Lowell Observatory-LONEOS MPS 85054
2003 09 22.31649 00 48 21.22 -00 04 37.7 18.5 R 699 – Lowell Observatory-LONEOS MPS 85054
2003 09 22.33306 00 48 20.47 -00 04 42.8   699 – Lowell Observatory-LONEOS MPS 85054
2003 09 22.34975 00 48 19.60 -00 04 47.5   699 – Lowell Observatory-LONEOS MPS 85054
